Location: Bonny Doon Airfield
(37.0704°N, 122.1252°W)
Time: 04:23:25
(UTC-07:00)

Envisat - Pass Details

Date: 11 October 2017
Orbit: 764 x 766 km, 98.2° (Epoch: 17 October)

Event Time Altitude Azimuth Distance (km) Brightness Sun altitude
Exits shadow 20:51:09 41° 6° (N) 1,097 3.7 -27.5°
Drops below altitude 10° 20:54:30 10° 353° (N) 2,306 5.7 -28.2°
Sets 20:56:49 0° 351° (N) 3,236 6.5 -28.6°
